CES258 ZSNB-ZPPP

Flight info

Callsign CES258
Flight time N/A
Altitude 38100
Route GOV91D GOVNI V140 JTN W583 SUF W167 SASAN R343 WHA A581 XISLI XISLI9E
Aircraft A346/H-SDE2E3FGHIJ3J4J5M1RWXY/LB1D1

Departure

Time N/A
Airport Ningbo Lishe International Airport (ZSNB)

Arrival

Time 2026-04-28 12:46
Airport Kunming Changshui International Airport (ZPPP)
Time Latitude Longitude Altitude Speed Heading
2026-04-28 11:30 27.81292 107.73958 38123 ft 437 kts 244°
2026-04-28 11:30 27.79927 107.70899 38111 ft 434 kts 244°
2026-04-28 11:31 27.77211 107.64793 38098 ft 435 kts 244°
2026-04-28 11:31 27.74497 107.58708 38104 ft 426 kts 244°
2026-04-28 11:32 27.73180 107.55765 38105 ft 413 kts 244°
2026-04-28 11:32 27.71893 107.52889 38105 ft 409 kts 244°
2026-04-28 11:32 27.69323 107.47152 38112 ft 409 kts 244°
2026-04-28 11:33 27.66753 107.41422 38123 ft 408 kts 244°
2026-04-28 11:33 27.64182 107.35706 38129 ft 407 kts 244°
2026-04-28 11:34 27.61620 107.30009 38125 ft 407 kts 244°
2026-04-28 11:34 27.59059 107.24325 38125 ft 406 kts 244°
2026-04-28 11:35 27.56741 107.18574 38062 ft 407 kts 258°
2026-04-28 11:35 27.56559 107.15384 38118 ft 411 kts 272°
2026-04-28 11:35 27.57144 107.12210 38119 ft 417 kts 287°
2026-04-28 11:36 27.58487 107.09282 38133 ft 427 kts 301°
2026-04-28 11:36 27.60554 107.06814 38154 ft 439 kts 316°
2026-04-28 11:36 27.63236 107.05067 38140 ft 455 kts 332°
2026-04-28 11:36 27.66361 107.04243 38158 ft 470 kts 349°
2026-04-28 11:37 27.69665 107.04514 38138 ft 487 kts
2026-04-28 11:37 27.72835 107.06012 38113 ft 504 kts 28°
2026-04-28 11:37 27.75489 107.08659 38122 ft 515 kts 49°
2026-04-28 11:37 27.77400 107.12102 38150 ft 519 kts 61°
2026-04-28 11:38 27.80476 107.19513 38135 ft 521 kts 64°
2026-04-28 11:38 27.83201 107.27078 38077 ft 521 kts 82°
2026-04-28 11:39 27.83253 107.31137 38110 ft 515 kts 103°
2026-04-28 11:39 27.82194 107.34941 38117 ft 503 kts 123°
2026-04-28 11:39 27.80169 107.38068 38113 ft 487 kts 144°
2026-04-28 11:39 27.77446 107.40179 38109 ft 467 kts 164°
2026-04-28 11:40 27.74387 107.41062 38122 ft 446 kts 184°
2026-04-28 11:40 27.71349 107.40803 38133 ft 433 kts 199°
2026-04-28 11:40 27.68545 107.39708 38145 ft 423 kts 212°
2026-04-28 11:40 27.66115 107.37912 38135 ft 414 kts 225°
2026-04-28 11:41 27.64200 107.35526 38132 ft 408 kts 238°
2026-04-28 11:41 27.62832 107.32732 38142 ft 406 kts 245°
2026-04-28 11:41 27.60277 107.27043 38133 ft 406 kts 244°
2026-04-28 11:42 27.57726 107.21411 38132 ft 406 kts 244°
2026-04-28 11:42 27.56695 107.18458 38088 ft 406 kts 258°
2026-04-28 11:42 27.56510 107.15272 38125 ft 411 kts 273°
2026-04-28 11:43 27.57102 107.12102 38133 ft 417 kts 287°
2026-04-28 11:43 27.58445 107.09173 38142 ft 427 kts 301°
2026-04-28 11:43 27.60504 107.06705 38153 ft 439 kts 316°
2026-04-28 11:43 27.63178 107.04943 38144 ft 454 kts 332°
2026-04-28 11:44 27.66294 107.04110 38161 ft 470 kts 349°
2026-04-28 11:44 27.69603 107.04385 38146 ft 487 kts
2026-04-28 11:44 27.72774 107.05871 38114 ft 504 kts 28°
2026-04-28 11:44 27.75429 107.08500 38128 ft 515 kts 49°
2026-04-28 11:45 27.77339 107.11944 38155 ft 520 kts 61°
2026-04-28 11:45 27.78914 107.15631 38146 ft 521 kts 64°
2026-04-28 11:45 27.82012 107.23048 38133 ft 521 kts 64°
2026-04-28 11:46 27.83218 107.26902 38084 ft 521 kts 82°
2026-04-28 11:46 27.83321 107.30966 38115 ft 515 kts 102°
2026-04-28 11:46 27.82304 107.34787 38123 ft 504 kts 122°
2026-04-28 11:46 27.80305 107.37948 38123 ft 487 kts 143°
2026-04-28 11:47 27.77595 107.40094 38113 ft 468 kts 163°
2026-04-28 11:47 27.74541 107.41009 38125 ft 447 kts 184°
2026-04-28 11:47 27.71494 107.40802 38135 ft 433 kts 198°
2026-04-28 11:47 27.68679 107.39753 38140 ft 423 kts 211°
2026-04-28 11:48 27.66224 107.37998 38141 ft 414 kts 225°
2026-04-28 11:48 27.64279 107.35645 38135 ft 408 kts 238°
2026-04-28 11:48 27.61620 107.30021 38139 ft 406 kts 244°
2026-04-28 11:49 27.59056 107.24350 38133 ft 405 kts 244°
2026-04-28 11:49 27.56715 107.18577 38088 ft 406 kts 258°
2026-04-28 11:50 27.56496 107.15400 38125 ft 410 kts 272°
2026-04-28 11:50 27.57048 107.12229 38138 ft 416 kts 286°
2026-04-28 11:50 27.58349 107.09285 38135 ft 426 kts 300°
2026-04-28 11:50 27.60366 107.06788 38162 ft 438 kts 315°
2026-04-28 11:51 27.63007 107.04977 38149 ft 453 kts 331°
2026-04-28 11:51 27.66058 107.04093 38165 ft 469 kts 348°
2026-04-28 11:51 27.68285 107.04100 38156 ft 480 kts
2026-04-28 11:51 27.72553 107.05701 38120 ft 503 kts 27°
2026-04-28 11:52 27.75263 107.08260 38137 ft 515 kts 47°
2026-04-28 11:52 27.77148 107.11711 38139 ft 521 kts 68°
2026-04-28 11:52 27.77989 107.15680 38138 ft 520 kts 89°
2026-04-28 11:52 27.77687 107.19712 38134 ft 512 kts 109°
2026-04-28 11:53 27.76296 107.23351 38137 ft 499 kts 130°
2026-04-28 11:53 27.74010 107.26184 38137 ft 481 kts 150°
2026-04-28 11:53 27.71131 107.27914 38138 ft 461 kts 171°
2026-04-28 11:53 27.68038 107.28428 38148 ft 443 kts 188°
2026-04-28 11:54 27.65040 107.27978 38139 ft 430 kts 202°
2026-04-28 11:54 27.62304 107.26738 38140 ft 420 kts 215°
2026-04-28 11:54 27.59978 107.24814 38138 ft 412 kts 228°
2026-04-28 11:54 27.58728 107.23222 38137 ft 408 kts 237°
2026-04-28 11:55 27.55610 107.16657 38136 ft 406 kts 244°
2026-04-28 11:55 27.53475 107.11929 38144 ft 407 kts 244°
2026-04-28 11:56 27.50899 107.06234 38149 ft 407 kts 244°
2026-04-28 11:56 27.48328 107.00557 38157 ft 405 kts 244°
2026-04-28 11:57 27.45779 106.94884 38164 ft 404 kts 245°
2026-04-28 11:57 27.43214 106.89129 38165 ft 419 kts 245°
2026-04-28 11:58 27.40552 106.83175 38162 ft 429 kts 245°
2026-04-28 11:58 27.37854 106.77154 38164 ft 430 kts 245°
2026-04-28 11:59 27.35147 106.71134 38171 ft 431 kts 244°
2026-04-28 11:59 27.32425 106.65122 38177 ft 430 kts 245°
2026-04-28 12:00 27.29710 106.59118 38178 ft 430 kts 245°
2026-04-28 12:00 27.26990 106.53120 38178 ft 430 kts 245°
2026-04-28 12:01 27.24271 106.47133 38174 ft 430 kts 245°
2026-04-28 12:01 27.21538 106.41119 38176 ft 431 kts 245°
2026-04-28 12:02 27.20381 106.38472 38080 ft 405 kts 245°
2026-04-28 12:02 27.19097 106.35666 38157 ft 412 kts 245°
2026-04-28 12:02 27.16424 106.29835 38184 ft 424 kts 245°
2026-04-28 12:03 27.13725 106.23926 38180 ft 425 kts 246°
2026-04-28 12:03 27.11024 106.17999 38163 ft 428 kts 245°
2026-04-28 12:04 27.08290 106.12018 38179 ft 429 kts 245°
2026-04-28 12:04 27.05560 106.06053 38180 ft 429 kts 245°
2026-04-28 12:05 27.02996 106.00006 38185 ft 428 kts 248°
2026-04-28 12:05 27.00591 105.93923 38183 ft 424 kts 248°
2026-04-28 12:06 26.98202 105.87875 38189 ft 424 kts 248°
2026-04-28 12:06 26.95810 105.81824 38193 ft 424 kts 248°
2026-04-28 12:07 26.93416 105.75775 38185 ft 424 kts 248°
2026-04-28 12:07 26.91018 105.69728 38187 ft 424 kts 248°
2026-04-28 12:08 26.88635 105.63718 38173 ft 425 kts 248°
2026-04-28 12:08 26.86219 105.57642 38189 ft 427 kts 248°
2026-04-28 12:09 26.83797 105.51557 38187 ft 427 kts 248°
2026-04-28 12:09 26.81373 105.45474 38192 ft 427 kts 248°
2026-04-28 12:10 26.78946 105.39397 38197 ft 427 kts 248°
2026-04-28 12:10 26.76516 105.33323 38200 ft 427 kts 248°
2026-04-28 12:11 26.74085 105.27258 38199 ft 426 kts 248°
2026-04-28 12:11 26.71654 105.21201 38197 ft 426 kts 248°
2026-04-28 12:12 26.69224 105.15152 38199 ft 426 kts 248°
2026-04-28 12:12 26.66792 105.09106 38196 ft 426 kts 248°
2026-04-28 12:13 26.64160 105.03127 38176 ft 432 kts 243°
2026-04-28 12:13 26.61008 104.97380 38186 ft 435 kts 239°
2026-04-28 12:14 26.57701 104.91723 38232 ft 434 kts 240°
2026-04-28 12:14 26.54404 104.86085 38204 ft 432 kts 240°
2026-04-28 12:15 26.51114 104.80456 38192 ft 432 kts 240°
2026-04-28 12:15 26.47839 104.74870 38202 ft 432 kts 240°
2026-04-28 12:16 26.44542 104.69255 38189 ft 432 kts 240°
2026-04-28 12:16 26.41240 104.63640 38169 ft 433 kts 240°
2026-04-28 12:17 26.37912 104.57992 38190 ft 436 kts 239°
2026-04-28 12:17 26.34563 104.52333 38186 ft 437 kts 239°
2026-04-28 12:18 26.31204 104.46654 38219 ft 437 kts 239°
2026-04-28 12:18 26.27859 104.41003 38210 ft 436 kts 239°
2026-04-28 12:19 26.24511 104.35350 38220 ft 437 kts 239°
2026-04-28 12:19 26.21156 104.29690 38217 ft 436 kts 239°
2026-04-28 12:20 26.17806 104.24052 38249 ft 433 kts 239°
2026-04-28 12:20 26.16153 104.21274 37918 ft 429 kts 239°
2026-04-28 12:20 26.14502 104.18491 37003 ft 433 kts 239°
2026-04-28 12:21 26.12828 104.15663 36037 ft 441 kts 238°
2026-04-28 12:21 26.11125 104.12798 35194 ft 445 kts 238°
2026-04-28 12:21 26.09409 104.09915 34630 ft 448 kts 238°
2026-04-28 12:21 26.07677 104.07013 34331 ft 452 kts 238°
2026-04-28 12:22 26.04180 104.01161 34246 ft 455 kts 237°
2026-04-28 12:22 26.00678 103.95303 34242 ft 455 kts 237°
2026-04-28 12:23 25.97167 103.89439 34251 ft 455 kts 237°
2026-04-28 12:23 25.93590 103.83627 34249 ft 456 kts 236°
2026-04-28 12:24 25.90010 103.77793 34223 ft 454 kts 238°
2026-04-28 12:24 25.88383 103.74826 34049 ft 445 kts 242°
2026-04-28 12:24 25.86944 103.71854 33450 ft 442 kts 244°
2026-04-28 12:25 25.85630 103.68751 32580 ft 445 kts 246°
2026-04-28 12:25 25.84374 103.65579 31684 ft 450 kts 246°
2026-04-28 12:25 25.83109 103.62383 30835 ft 454 kts 246°
2026-04-28 12:25 25.81832 103.59155 29915 ft 458 kts 245°
2026-04-28 12:26 25.80539 103.55904 28888 ft 462 kts 246°
2026-04-28 12:26 25.79241 103.52644 28200 ft 459 kts 246°
2026-04-28 12:26 25.77961 103.49428 27826 ft 453 kts 246°
2026-04-28 12:26 25.76683 103.46223 27621 ft 453 kts 246°
2026-04-28 12:27 25.75419 103.43047 27151 ft 448 kts 246°
2026-04-28 12:27 25.74161 103.39886 26444 ft 446 kts 246°
2026-04-28 12:27 25.72910 103.36747 25860 ft 443 kts 246°
2026-04-28 12:27 25.71667 103.33631 25297 ft 439 kts 246°
2026-04-28 12:28 25.70373 103.30577 24704 ft 436 kts 242°
2026-04-28 12:28 25.68714 103.27769 24145 ft 434 kts 234°
2026-04-28 12:28 25.66713 103.25273 23576 ft 432 kts 226°
2026-04-28 12:28 25.64439 103.23098 22930 ft 430 kts 221°
2026-04-28 12:29 25.59788 103.18995 21690 ft 424 kts 220°
2026-04-28 12:29 25.57482 103.16978 21136 ft 420 kts 220°
2026-04-28 12:29 25.55199 103.14984 20868 ft 417 kts 220°
2026-04-28 12:30 25.52916 103.12987 20852 ft 419 kts 221°
2026-04-28 12:30 25.50621 103.10984 20845 ft 421 kts 220°
2026-04-28 12:30 25.48320 103.08975 20840 ft 419 kts 221°
2026-04-28 12:30 25.46049 103.06993 20560 ft 412 kts 220°
2026-04-28 12:31 25.43797 103.05026 19853 ft 413 kts 221°
2026-04-28 12:31 25.41545 103.03060 19268 ft 411 kts 220°
2026-04-28 12:31 25.39312 103.01110 18726 ft 407 kts 220°
2026-04-28 12:31 25.37098 102.99179 18115 ft 404 kts 220°
2026-04-28 12:32 25.34901 102.97263 17478 ft 400 kts 220°
2026-04-28 12:32 25.32724 102.95366 16925 ft 396 kts 220°
2026-04-28 12:32 25.30569 102.93490 16332 ft 393 kts 220°
2026-04-28 12:32 25.28460 102.91651 15818 ft 388 kts 220°
2026-04-28 12:33 25.26346 102.89811 15614 ft 375 kts 220°
2026-04-28 12:33 25.24349 102.88079 15411 ft 364 kts 220°
2026-04-28 12:33 25.22393 102.86377 15215 ft 352 kts 220°
2026-04-28 12:33 25.20493 102.84725 15050 ft 342 kts 220°
2026-04-28 12:34 25.18654 102.83132 14774 ft 327 kts 220°
2026-04-28 12:34 25.16939 102.81643 14764 ft 299 kts 220°
2026-04-28 12:34 25.15373 102.80283 14761 ft 278 kts 220°
2026-04-28 12:34 25.13875 102.78983 14765 ft 269 kts 220°
2026-04-28 12:35 25.12424 102.77720 14483 ft 265 kts 220°
2026-04-28 12:35 25.10962 102.76446 14032 ft 269 kts 220°
2026-04-28 12:35 25.09486 102.75162 13618 ft 270 kts 220°
2026-04-28 12:35 25.08009 102.73880 13239 ft 269 kts 220°
2026-04-28 12:36 25.06610 102.72510 12855 ft 268 kts 229°
2026-04-28 12:36 25.05450 102.70911 12484 ft 266 kts 238°
2026-04-28 12:36 25.04570 102.69159 12311 ft 257 kts 246°
2026-04-28 12:36 25.03973 102.67338 12136 ft 248 kts 255°
2026-04-28 12:37 25.03646 102.65491 11954 ft 242 kts 261°
2026-04-28 12:37 25.03122 102.63765 11765 ft 238 kts 234°
2026-04-28 12:37 25.01955 102.62650 11778 ft 243 kts 208°
2026-04-28 12:37 25.00370 102.61961 11766 ft 246 kts 200°
2026-04-28 12:38 24.98727 102.61408 11746 ft 248 kts 199°
2026-04-28 12:38 24.97071 102.60883 11721 ft 247 kts 199°
2026-04-28 12:38 24.95420 102.60375 11722 ft 246 kts 198°
2026-04-28 12:38 24.93725 102.60122 11690 ft 250 kts 175°
2026-04-28 12:39 24.92103 102.60778 11448 ft 253 kts 149°
2026-04-28 12:39 24.90736 102.62018 11090 ft 256 kts 140°
2026-04-28 12:39 24.89489 102.63416 10796 ft 256 kts 125°
2026-04-28 12:39 24.88984 102.65284 10750 ft 262 kts 89°
2026-04-28 12:40 24.89160 102.67295 10789 ft 263 kts 84°
2026-04-28 12:40 24.89385 102.69275 10591 ft 260 kts 85°
2026-04-28 12:40 24.89571 102.71261 10258 ft 261 kts 86°
2026-04-28 12:40 24.89911 102.73215 9965 ft 260 kts 67°
2026-04-28 12:41 24.90907 102.74851 9767 ft 254 kts 44°
2026-04-28 12:41 24.92202 102.76089 9769 ft 238 kts 36°
2026-04-28 12:41 24.93489 102.77138 9817 ft 226 kts 34°
2026-04-28 12:41 24.94749 102.78163 9791 ft 223 kts 35°
2026-04-28 12:42 24.95984 102.79204 9782 ft 225 kts 36°
2026-04-28 12:42 24.97212 102.80270 9789 ft 225 kts 36°
2026-04-28 12:42 24.98442 102.81353 9795 ft 227 kts 37°
2026-04-28 12:42 24.99667 102.82438 9619 ft 225 kts 37°
2026-04-28 12:43 25.00878 102.83505 9372 ft 221 kts 38°
2026-04-28 12:43 25.02057 102.84544 9073 ft 218 kts 38°
2026-04-28 12:43 25.03226 102.85569 8776 ft 211 kts 37°
2026-04-28 12:43 25.04357 102.86559 8494 ft 203 kts 38°
2026-04-28 12:44 25.05462 102.87526 8234 ft 197 kts 38°
2026-04-28 12:44 25.06502 102.88438 7988 ft 185 kts 38°
2026-04-28 12:44 25.07472 102.89288 7754 ft 171 kts 38°
2026-04-28 12:44 25.08368 102.90071 7497 ft 158 kts 40°
2026-04-28 12:45 25.09219 102.90819 7289 ft 154 kts 39°
2026-04-28 12:45 25.10069 102.91555 7101 ft 156 kts 39°
2026-04-28 12:45 25.10903 102.92301 6922 ft 153 kts 39°
2026-04-28 12:45 25.11486 102.92798 6922 ft 56 kts 38°
2026-04-28 12:46 25.11667 102.92992 6920 ft 26 kts 57°
2026-04-28 12:46 25.11744 102.93147 6914 ft 19 kts 84°
2026-04-28 12:46 25.11702 102.93202 6925 ft 6 kts 192°
2026-04-28 12:46 25.11666 102.93176 6921 ft 7 kts 245°
2026-04-28 12:47 25.11623 102.93137 6918 ft 15 kts 211°
2026-04-28 12:47 25.11531 102.93074 6918 ft 17 kts 211°
2026-04-28 12:47 25.11434 102.92996 6920 ft 18 kts 219°
2026-04-28 12:47 25.11333 102.92906 6919 ft 19 kts 219°
2026-04-28 12:48 25.11225 102.92809 6922 ft 19 kts 219°
2026-04-28 12:48 25.11140 102.92733 6924 ft 15 kts 219°
2026-04-28 12:48 25.11054 102.92656 6919 ft 17 kts 219°
2026-04-28 12:48 25.10957 102.92575 6919 ft 18 kts 218°
2026-04-28 12:49 25.10853 102.92484 6921 ft 20 kts 218°
2026-04-28 12:49 25.10749 102.92462 6925 ft 17 kts 139°
2026-04-28 12:49 25.10680 102.92569 6925 ft 18 kts 122°
2026-04-28 12:49 25.10668 102.92706 6924 ft 19 kts 94°
2026-04-28 12:50 25.10659 102.92774 6921 ft 0 kts 99°